Dewpoint
-16 -13 -10 -2 -0 -1 -0 -2 -5 -6 -4 -6 -6 -6 -6 -6 -6 -2 -1 -1 -2 -2 -3 -3 -1 9 9 7 6 4 5 6 8 9 10 12 12 12 11 10 9 9 7 6 7 7 9 8 8
-16 -10 -2 -1 1 1 -1 -3 -4 -5 -6 -7 -8 -7 -5 -0 2 4 1 1 -1 -1 -2 -3 -1 7 9 8 7 4 4 5 6 9 11 12 13 12 11 10 10 8 6 5 6 7 9 9 10
-13 -8 -0 -2 0 1 -0 -3 -7 -8 -7 -6 -8 -7 -6 0 1 0 2 2 -0 -1 -2 -2 -1 2 10 9 8 6 4 5 5 6 8 10 10 11 10 9 6 5 5 3 3 7 10 10 10
-12 -3 -2 -2 0 -1 -2 -3 -5 -7 -8 -7 -8 -6 -5 -5 -5 -2 0 1 -4 -4 -3 -1 -0 0 7 10 9 8 7 5 5 5 5 8 9 9 7 4 2 4 3 3 4 6 10 9 9
-4 -3 -3 -4 -4 -5 -6 -6 -7 -7 -8 -8 -6 -5 -4 -1 -1 -2 -1 -2 -4 -4 -3 -2 0 1 4 7 11 10 9 7 6 6 5 5 7 6 7 5 5 2 3 7 2 5 7 5 -1
-4 -6 -4 -3 -4 -6 -7 -7 -6 -7 -7 -7 -5 -5 -3 -1 0 -1 -2 -2 -3 -3 -2 -2 1 2 4 6 8 10 11 9 8 9 7 5 4 7 7 6 7 1 4 2 1 3 -1 -4 1
-3 -4 -4 -5 -4 -4 -6 -8 -8 -6 -6 -6 -7 -2 1 -3 -1 0 -1 -2 -3 -1 -0 -0 1 3 5 7 9 9 11 11 10 10 10 7 7 8 7 8 8 1 10 6 0 -4 -1 4 7
-3 -3 -2 -3 -3 -4 -7 -8 -8 -8 -8 -9 -5 4 5 -5 1 1 1 -1 -1 1 1 1 2 4 5 6 6 10 11 12 12 11 8 6 7 9 8 9 9 2 -2 -1 -1 2 8 7 5
-2 -2 -0 -2 -4 -5 -8 -6 -7 -8 -8 -8 -7 -6 -5 -3 1 4 3 2 3 3 2 2 3 4 4 4 5 6 8 13 13 12 10 9 8 9 9 7 8 9 -5 -3 2 8 9 9 8
-3 -2 -3 -5 -6 -6 -6 -7 -7 -8 -8 -9 -9 -9 -9 -6 1 4 3 2 2 3 1 3 5 6 7 6 6 6 7 11 13 13 12 10 9 9 9 7 5 9 -4 -2 4 9 10 10 7
-5 -2 -6 -6 -7 -7 -7 -7 -7 -8 -7 -8 -9 -10 -8 -7 1 2 3 2 2 2 2 4 7 9 10 10 10 9 7 9 12 12 12 11 9 10 8 7 6 10 -2 2 8 9 8 7 6
-1 -4 -5 -5 -4 -5 -6 -6 -8 -8 -8 -6 -8 -8 -8 -6 -1 1 3 3 3 2 3 6 8 10 10 11 10 8 7 8 10 12 12 12 10 10 8 7 5 9 -2 4 8 8 6 7 6
-2 -3 -3 -3 -3 -4 -5 -6 -6 -7 -5 -6 -7 -7 -7 -3 -0 -0 1 2 4 3 4 7 9 11 11 11 10 7 8 9 8 10 12 10 11 10 9 8 2 10 -2 2 8 7 6 6 7
-3 -3 -3 -4 -4 -4 -4 -4 -5 -6 -5 -6 -7 -5 -4 -3 -3 0 3 3 4 3 3 7 9 11 11 11 9 8 8 7 8 8 9 11 11 10 10 10 6 10 -3 -1 7 6 6 6 6
-8 -7 -7 -6 -5 -4 -5 -3 -5 -5 -5 -4 -4 -4 -4 -4 -3 -4 -5 -3 3 3 4 6 9 11 11 9 8 9 8 8 9 10 11 10 11 10 10 8 6 10 -5 -6 6 6 6 6 6
-9 -8 -5 -4 -4 -5 -5 -2 -5 -6 -5 -3 -4 -4 -4 -4 -4 -3 -5 -5 2 3 4 7 10 11 10 9 10 9 9 9 9 10 10 11 11 10 10 9 5 10 -5 -7 3 5 5 6 6
-8 -6 -5 -5 -6 -6 -6 -7 -7 -6 -6 -3 -4 -5 -5 -7 -7 -5 -3 -6 -3 2 6 8 10 10 10 8 10 11 10 9 11 11 10 10 11 10 10 10 7 10 -4 -7 -3 2 5 6 6
-5 -6 -6 -5 -8 -8 -6 -6 -10 -8 -5 -4 -4 -6 -7 -6 -7 -6 -4 -4 -3 2 7 9 10 10 9 8 10 10 11 10 10 10 10 10 11 10 9 8 9 10 -5 -7 -6 -1 5 5 6
-8 -8 -8 -10 -12 -13 -13 -11 -11 -11 -6 -5 -6 -7 -6 -5 -7 -4 -4 -4 5 6 9 9 10 10 8 7 10 10 10 11 10 11 10 9 10 10 8 9 8 9 -6 -7 -7 -3 4 6 7
-12 -10 -10 -13 -15 -12 -11 -10 -10 -9 -9 -7 -5 -5 -4 -5 -4 -3 -3 -0 -1 7 9 10 9 9 6 7 10 10 11 11 10 11 10 9 9 9 9 8 8 9 -5 -5 -6 -4 5 6 6
-9 -10 -10 -11 -12 -10 -9 -6 -6 -7 -6 -4 -5 -6 -5 -4 -2 -3 -2 4 5 8 9 9 8 8 6 9 10 10 11 11 11 10 11 10 10 9 9 8 8 9 -3 -2 -4 -4 2 5 6
-1 -8 -9 -10 -5 -2 -6 -2 -5 -6 -6 -6 -6 -7 -6 -5 -5 -5 -0 4 4 9 9 8 8 7 5 9 10 10 11 10 11 11 10 11 10 9 9 10 9 10 -0 0 -1 -3 -2 1 7
-2 -4 -3 -3 -3 -3 -3 -1 -4 -6 -5 -6 -7 -7 -6 -6 -6 -5 -3 -1 6 10 9 8 8 4 6 9 10 10 10 11 10 10 11 11 10 10 10 9 10 10 3 1 2 1 4 6 7
-7 -7 -4 -3 -2 0 -4 -2 -4 -5 -5 -5 -6 -5 2 2 1 -0 -1 4 7 10 9 8 8 3 7 9 10 9 9 9 11 11 10 10 10 10 10 10 10 9 6 2 3 3 6 9 8
-8 -4 -2 -1 2 0 -4 -1 -4 -5 -5 -3 4 4 4 4 3 3 0 1 6 9 9 9 7 3 8 11 10 9 8 8 9 10 10 11 11 11 10 10 11 10 10 5 4 4 5 8 9
-6 -4 -1 -2 -1 -2 -3 1 -2 -2 -0 4 5 6 5 5 4 6 4 1 5 9 9 9 6 3 9 10 10 9 10 9 9 9 9 9 10 10 11 10 10 10 10 9 9 7 6 8 9
-4 -4 -6 -4 -3 2 -1 -2 -5 -1 4 4 5 6 6 5 4 4 8 9 8 8 9 9 5 3 8 10 9 10 9 9 10 10 10 9 10 10 10 10 11 10 10 9 9 9 9 9 8
-1 -3 -3 -0 2 -0 -1 1 1 0 5 4 5 7 6 4 4 5 10 10 10 9 9 8 5 3 7 9 9 9 10 9 9 10 10 10 10 10 10 10 10 10 10 9 9 9 9 9 9
-1 2 2 2 1 3 1 -1 2 5 5 5 5 5 5 4 6 6 4 10 10 10 10 8 5 4 7 7 8 9 9 10 9 10 9 10 10 10 9 10 10 10 10 10 10 10 8 9 8
-2 3 4 5 5 4 5 3 -1 -1 6 5 5 4 4 4 5 4 3 9 10 10 10 9 6 4 6 6 7 8 9 9 9 9 9 9 9 10 10 10 9 10 10 9 10 9 9 8 7
Wind_Speed
5 4 0 2 3 4 3 6 3 3 2 6 8 5 7 5 5 4 21 15 10 7 5 4 4 10 17 20 20 20 19 18 18 21 24 27 27 24 25 24 23 23 22 22 22 21 21 18 16
5 3 0 3 4 2 5 4 5 7 7 9 7 10 5 3 7 8 21 18 11 8 5 3 4 10 16 20 20 20 22 21 20 20 23 27 26 26 25 23 22 21 21 21 20 21 20 18 16
6 4 1 4 3 5 5 4 2 13 14 4 2 4 8 4 10 6 13 13 12 9 5 3 4 9 15 19 20 21 22 21 20 22 23 24 23 22 22 22 22 20 19 19 20 22 22 19 18
5 4 3 3 7 7 5 4 4 11 18 17 10 2 4 11 7 11 13 14 11 9 5 5 6 8 13 18 20 21 21 21 22 23 23 23 23 21 20 19 18 19 19 20 22 23 22 20 20
6 2 1 2 6 5 5 9 16 8 6 12 11 3 4 12 13 13 14 14 13 11 8 8 8 10 12 14 18 20 21 22 23 23 26 28 23 16 18 18 19 19 20 21 23 25 23 23 22
3 3 3 5 6 5 4 13 12 7 15 10 5 4 5 16 17 18 16 16 16 13 10 11 12 12 14 15 17 19 21 24 26 27 27 28 30 24 10 13 20 19 20 22 24 26 27 27 25
6 4 5 5 5 8 3 7 4 7 2 8 6 6 5 17 19 21 20 20 19 17 13 12 14 15 16 17 18 19 20 23 26 27 30 26 25 18 14 21 22 19 19 23 27 28 30 29 25
6 4 5 5 3 11 6 7 7 13 11 22 8 5 5 16 23 25 25 23 21 18 15 15 17 17 17 18 20 22 23 23 27 31 33 37 28 30 27 25 21 16 20 29 32 31 31 27 22
7 3 4 6 7 8 7 7 18 17 14 16 8 9 12 11 25 28 28 26 24 22 18 18 19 19 17 18 19 21 22 28 30 34 38 37 31 28 25 27 22 18 24 32 34 35 32 27 20
6 5 10 7 6 9 11 8 27 10 22 22 31 22 20 14 25 32 33 31 29 27 23 21 21 21 18 18 18 18 22 29 34 37 39 38 36 36 28 31 26 24 28 34 37 36 32 26 21
7 7 6 7 15 17 19 6 23 8 9 24 26 32 19 15 21 31 35 34 31 27 25 23 23 23 21 19 19 20 24 31 35 40 40 41 42 35 33 35 32 27 31 39 40 37 31 26 23
5 6 6 5 21 19 7 25 6 21 20 25 28 29 19 17 22 29 37 36 33 30 28 25 26 26 23 21 21 21 23 28 34 38 39 46 45 37 42 40 39 34 33 41 42 38 32 27 23
6 6 18 23 28 28 28 15 17 17 29 23 28 21 18 19 21 27 31 35 34 32 31 29 28 28 24 22 21 22 22 25 28 31 37 41 48 48 47 43 47 37 37 43 44 38 33 29 27
7 6 10 12 16 14 10 15 9 15 26 25 19 16 16 13 20 28 33 38 38 34 36 31 29 27 24 22 21 21 21 21 21 26 32 39 47 48 45 45 47 39 39 45 45 40 33 29 26
5 5 5 6 10 7 6 19 9 23 15 15 19 22 27 26 26 26 34 38 40 39 39 31 30 27 23 20 19 20 21 21 21 26 33 40 55 57 46 47 46 41 39 44 45 40 34 31 26
2 2 4 4 6 5 6 33 1 18 19 20 25 28 29 33 34 35 30 38 42 41 40 33 31 26 19 17 17 20 19 22 21 29 35 50 47 56 52 55 50 42 42 44 46 43 38 33 27
1 9 6 4 6 5 7 19 2 11 29 21 24 28 32 38 40 35 31 35 41 43 40 35 30 22 17 15 17 18 17 19 20 25 32 33 38 58 58 53 47 42 43 45 46 46 42 37 30
6 6 5 4 4 3 6 19 9 19 25 22 25 31 37 38 46 36 35 28 42 43 36 35 26 20 17 16 17 15 17 15 15 12 30 33 36 48 44 41 41 39 42 45 48 45 43 39 33
2 4 7 2 4 5 16 17 14 15 19 16 26 31 37 37 45 35 33 26 37 41 38 33 26 22 19 20 22 19 17 14 13 11 28 34 46 39 40 38 39 41 46 47 46 45 46 38 32
6 8 13 9 10 6 11 20 17 7 9 19 22 31 35 38 38 31 33 31 34 42 39 33 26 22 20 20 22 20 17 17 18 20 31 38 40 42 45 42 43 44 46 46 48 48 48 39 35
7 9 4 12 6 5 8 19 12 7 7 16 24 31 34 38 31 30 30 31 38 45 42 34 27 22 21 23 23 21 19 20 23 25 37 38 40 37 41 43 44 45 48 49 49 50 51 46 37
13 8 13 11 3 9 6 15 20 6 9 6 15 27 32 31 17 20 25 31 39 47 39 32 26 23 23 27 26 23 25 25 30 31 33 40 40 42 42 42 44 47 50 51 51 49 49 46 42
11 8 9 11 8 2 5 2 16 8 16 13 10 21 25 19 17 20 23 29 41 46 41 34 27 25 27 30 28 26 27 26 27 30 36 43 42 44 45 45 46 48 52 53 52 52 49 44 42
3 2 3 1 1 6 6 6 23 4 9 7 10 26 24 25 25 25 27 29 39 46 40 34 29 27 30 29 29 28 28 29 30 28 35 42 45 47 48 49 50 46 50 54 53 53 48 43 42
4 5 2 3 2 11 5 4 15 8 9 8 8 19 24 30 36 26 31 33 39 49 43 36 31 31 31 31 29 26 24 25 28 34 37 35 44 44 54 55 52 50 49 52 52 51 48 43 42
5 8 5 6 5 7 4 6 5 4 3 12 15 15 26 38 40 43 29 36 41 49 46 39 33 33 32 30 28 25 23 21 20 25 32 36 45 39 54 58 55 53 52 51 49 47 49 47 44
2 4 4 4 4 3 5 7 6 4 7 7 12 20 23 34 38 42 21 34 39 49 47 42 35 33 31 30 26 25 21 18 17 18 20 21 30 38 38 56 53 54 52 49 47 46 46 46 45
4 3 2 3 3 6 5 3 5 7 5 8 12 15 25 41 48 41 19 23 33 44 45 40 33 30 30 28 25 24 22 18 13 12 13 21 22 28 37 49 53 54 50 49 45 45 40 40 40
4 3 4 1 1 3 4 5 2 2 1 7 10 19 30 43 44 41 33 22 28 37 40 37 33 30 28 27 25 25 23 20 14 11 9 14 23 27 38 45 43 51 45 45 43 39 41 39 31
4 4 3 3 4 2 3 5 5 12 2 3 2 12 27 38 46 41 43 22 23 26 31 32 33 30 28 25 25 25 23 23 17 13 9 7 12 18 23 34 39 41 46 41 42 40 40 25 25
Wind_Direction
179 179 98 355 41 61 269 262 243 279 247 216 164 162 178 170 162 212 153 156 161 163 135 91 148 182 192 194 192 186 185 182 178 171 169 175 174 172 168 169 168 171 171 170 171 167 171 172 167
164 168 315 109 91 39 267 261 256 260 257 184 153 123 135 219 164 162 166 167 171 178 145 87 139 179 193 199 197 193 193 191 184 175 167 172 173 171 172 175 177 180 180 178 173 170 171 173 172
165 179 280 101 128 191 219 228 351 338 317 267 188 203 158 203 194 199 186 181 185 183 168 161 161 174 195 203 204 204 204 199 193 187 179 177 179 183 182 182 184 188 190 177 172 173 174 174 175
165 173 75 103 224 254 224 250 315 318 308 265 250 198 201 197 204 195 184 185 193 192 188 193 183 180 189 202 208 213 215 210 205 195 181 175 175 182 187 189 190 188 192 178 169 174 176 180 182
167 144 49 256 249 251 239 264 279 256 239 251 213 237 243 202 185 187 192 198 209 193 207 210 200 189 188 196 212 219 221 216 212 211 191 178 167 175 184 189 192 189 190 179 177 174 176 179 178
150 108 75 257 251 252 261 272 282 246 254 236 202 173 213 198 195 194 202 212 207 207 222 211 206 206 201 201 207 218 224 225 217 206 194 191 187 177 214 213 203 191 188 185 176 172 172 173 170
140 102 206 255 282 297 226 319 298 292 233 229 207 153 238 208 207 204 209 205 207 209 222 223 216 216 214 213 214 212 218 225 217 211 196 195 188 226 230 216 205 191 177 177 171 170 169 171 167
181 114 175 240 248 277 218 316 319 347 321 312 232 194 237 234 197 202 205 207 212 218 227 230 224 222 222 222 223 220 218 220 221 211 208 195 220 217 219 205 207 200 182 175 169 167 168 171 169
179 104 195 231 179 252 293 359 305 319 305 325 281 292 260 264 209 202 204 207 215 222 229 234 232 228 228 232 230 229 226 218 218 218 214 217 216 195 181 191 206 200 182 174 170 169 171 175 170
167 163 210 216 204 275 279 293 295 316 304 296 299 298 293 286 220 210 211 215 220 226 233 236 231 225 222 230 229 234 238 225 223 217 214 211 208 194 195 202 203 196 183 176 172 172 178 183 175
200 218 189 243 255 263 280 259 278 276 281 278 276 287 279 279 226 230 222 226 231 237 237 239 236 226 226 232 234 242 242 229 227 223 214 208 197 207 202 195 198 197 188 178 174 177 182 183 181
250 204 210 241 272 275 242 283 254 263 265 299 294 290 270 250 232 234 229 232 229 236 241 241 237 230 230 232 241 253 245 233 226 229 223 207 203 200 195 188 195 199 192 182 177 179 182 184 183
216 243 254 258 268 276 280 256 264 258 283 288 294 298 289 254 247 238 243 240 231 239 244 240 235 232 231 239 250 253 237 223 222 221 224 221 214 201 198 196 193 197 193 187 180 180 183 184 179
269 264 261 263 254 252 267 271 252 269 289 285 288 295 302 279 269 257 243 238 230 238 244 240 237 233 234 248 255 240 222 213 216 222 224 220 217 196 196 197 195 198 193 188 184 181 183 181 183
260 292 286 225 237 230 267 270 230 278 285 284 297 301 299 304 312 292 259 244 229 232 241 238 237 230 237 249 242 224 223 223 231 243 235 212 202 200 199 194 199 196 193 189 185 183 183 186 189
315 264 259 228 196 250 121 272 135 292 289 293 304 306 304 309 306 313 276 254 236 231 238 233 229 227 236 245 232 219 224 225 243 251 221 211 208 206 197 197 198 196 193 191 187 185 186 189 192
286 256 237 282 260 259 179 277 237 301 298 288 297 302 305 312 307 305 308 259 244 235 231 227 222 224 238 235 219 221 223 233 259 259 223 214 198 192 196 196 192 195 194 190 188 189 189 190 193
208 247 240 190 263 262 264 279 287 291 284 281 296 303 305 308 304 304 310 277 244 231 222 221 219 222 229 222 214 215 216 233 253 243 209 202 179 184 189 197 190 196 196 191 190 189 190 193 195
261 255 260 219 226 299 279 277 279 280 283 287 294 298 299 299 309 293 309 279 244 219 214 215 215 222 222 211 204 206 199 221 211 210 189 186 194 196 203 200 198 198 196 193 190 191 191 189 192
243 260 275 290 250 185 271 276 279 249 251 262 279 289 294 298 297 291 295 262 236 218 210 212 217 227 223 212 205 202 194 198 199 180 182 189 191 200 202 209 204 203 197 194 193 194 189 189 193
228 235 239 255 321 253 286 281 270 253 249 272 278 285 290 291 279 287 274 244 223 214 209 213 218 225 220 208 204 202 193 191 197 195 186 197 200 202 206 206 206 204 202 198 196 197 196 192 193
255 198 241 260 245 272 178 285 287 258 280 269 291 291 288 296 272 275 261 241 223 217 208 215 217 222 218 209 204 203 190 192 197 203 196 195 202 202 212 217 213 208 206 203 200 200 200 200 195
246 208 233 245 254 320 209 233 289 352 301 291 292 300 304 294 288 278 272 262 227 214 210 212 216 219 214 207 205 202 196 198 204 204 205 200 200 205 208 213 215 212 210 207 205 202 203 206 204
234 168 269 354 177 247 266 170 281 231 271 298 315 312 330 337 303 292 290 253 233 215 212 210 214 216 210 203 203 204 204 205 206 204 209 209 212 211 212 216 220 215 215 211 209 208 207 208 209
166 103 329 299 198 251 177 237 257 288 283 307 322 316 336 346 349 314 277 246 230 215 210 210 212 213 207 203 203 204 208 208 210 216 215 210 218 217 220 216 217 216 214 215 214 212 211 211 213
186 160 168 232 224 261 224 242 244 248 350 346 339 345 346 358 350 336 271 242 226 214 208 210 210 212 204 205 202 203 202 209 219 212 221 226 226 223 212 215 215 218 217 215 216 215 214 214 213
231 159 210 243 252 264 236 284 311 315 4 336 345 350 344 353 344 337 283 231 222 212 207 212 210 209 204 204 206 204 202 203 199 211 224 235 243 234 219 218 215 218 221 217 212 217 216 215 212
82 1 57 1 223 240 262 247 243 303 345 345 346 342 345 341 333 335 293 238 226 215 207 210 211 207 206 204 205 209 201 207 203 209 223 237 227 217 215 209 217 218 217 224 213 215 215 218 213
14 37 36 207 284 288 275 269 195 318 20 350 4 0 348 333 322 323 327 250 223 211 211 208 208 205 204 207 203 203 201 206 206 195 173 209 215 210 207 212 213 210 213 209 214 211 214 225 209
131 123 104 144 1 298 240 269 54 20 80 207 31 2 0 312 311 315 327 245 228 216 216 214 208 206 207 209 203 201 203 200 206 196 183 197 200 207 212 211 206 208 209 212 204 206 215 211 232
Height
1489 1489 1490 1492 1504 1508 1508 1495 1480 1475 1473 1466 1467 1467 1468 1468 1473 1487 1473 1475 1476 1477 1477 1477 1478 1480 1483 1485 1486 1488 1489 1490 1492 1493 1494 1495 1498 1500 1503 1507 1509 1511 1511 1513 1516 1519 1521 1523 1525
1489 1489 1491 1490 1510 1517 1505 1485 1481 1474 1468 1466 1465 1466 1468 1469 1468 1469 1470 1472 1475 1476 1476 1476 1477 1479 1482 1484 1486 1488 1489 1490 1492 1494 1496 1498 1500 1502 1505 1507 1510 1512 1513 1513 1516 1519 1522 1524 1526
1488 1489 1491 1496 1511 1512 1499 1478 1471 1468 1471 1470 1467 1466 1466 1465 1465 1466 1467 1469 1471 1472 1474 1475 1476 1478 1481 1483 1485 1487 1489 1491 1493 1494 1495 1499 1502 1504 1506 1507 1509 1511 1514 1515 1516 1519 1522 1525 1527
1488 1490 1493 1501 1503 1493 1483 1472 1473 1471 1469 1469 1468 1465 1464 1463 1462 1464 1465 1468 1469 1471 1472 1474 1475 1477 1479 1482 1485 1487 1489 1491 1491 1494 1495 1497 1500 1505 1508 1508 1509 1511 1514 1514 1516 1519 1522 1525 1527
1488 1489 1499 1502 1496 1484 1477 1473 1472 1471 1468 1464 1464 1464 1463 1462 1461 1462 1464 1465 1467 1468 1470 1472 1473 1475 1477 1480 1482 1485 1488 1489 1491 1492 1492 1492 1497 1504 1510 1509 1511 1510 1514 1515 1515 1518 1522 1525 1527
1488 1490 1507 1506 1491 1478 1474 1471 1467 1463 1460 1462 1462 1462 1461 1460 1461 1460 1461 1463 1464 1465 1467 1469 1471 1472 1474 1477 1479 1482 1485 1487 1490 1491 1492 1495 1492 1503 1512 1511 1513 1510 1514 1515 1516 1518 1521 1524 1527
1486 1494 1500 1496 1489 1478 1469 1466 1465 1463 1460 1460 1459 1461 1458 1457 1458 1459 1460 1460 1461 1463 1465 1467 1468 1470 1471 1473 1476 1479 1482 1484 1487 1490 1493 1483 1498 1498 1502 1514 1517 1511 1514 1516 1517 1519 1522 1524 1528
1483 1488 1496 1492 1489 1476 1465 1465 1464 1465 1464 1462 1459 1459 1458 1454 1456 1456 1457 1458 1459 1461 1462 1463 1465 1467 1468 1470 1472 1476 1478 1481 1483 1486 1488 1488 1491 1497 1499 1513 1516 1514 1513 1516 1518 1521 1524 1526 1528
1479 1492 1498 1486 1486 1470 1464 1466 1460 1463 1463 1460 1460 1457 1455 1455 1455 1456 1456 1457 1458 1458 1459 1460 1462 1464 1465 1466 1468 1471 1474 1476 1479 1482 1486 1489 1491 1495 1499 1507 1510 1514 1514 1515 1519 1522 1525 1527 1529
1476 1487 1486 1475 1471 1468 1465 1467 1464 1465 1460 1457 1455 1454 1455 1454 1454 1453 1452 1452 1455 1456 1456 1457 1458 1460 1461 1463 1464 1466 1469 1471 1473 1475 1479 1483 1488 1491 1497 1501 1507 1513 1514 1515 1519 1522 1525 1528 1530
1468 1471 1471 1468 1466 1466 1460 1462 1463 1462 1460 1456 1454 1451 1451 1451 1452 1452 1450 1450 1450 1453 1453 1453 1454 1456 1457 1458 1459 1461 1462 1464 1466 1468 1472 1478 1483 1488 1493 1498 1503 1510 1512 1515 1518 1522 1524 1529 1531
1468 1463 1464 1463 1462 1462 1461 1456 1457 1456 1452 1451 1448 1447 1447 1445 1446 1446 1447 1446 1447 1448 1449 1450 1450 1451 1453 1454 1454 1454 1454 1456 1459 1462 1467 1470 1476 1482 1488 1493 1498 1505 1509 1515 1516 1520 1524 1528 1531
1463 1461 1459 1459 1459 1457 1456 1452 1450 1446 1447 1447 1445 1443 1442 1443 1443 1442 1442 1442 1445 1445 1445 1445 1445 1447 1449 1448 1449 1448 1448 1450 1453 1457 1461 1465 1470 1474 1482 1487 1493 1500 1506 1513 1516 1520 1523 1528 1532
1455 1455 1454 1453 1453 1452 1452 1445 1446 1441 1441 1439 1440 1438 1438 1438 1438 1438 1437 1435 1436 1439 1439 1441 1440 1442 1444 1444 1443 1443 1443 1446 1449 1453 1456 1460 1464 1471 1477 1482 1488 1497 1504 1511 1516 1519 1523 1528 1532
1453 1455 1452 1451 1448 1448 1447 1436 1442 1436 1435 1433 1433 1432 1430 1430 1431 1430 1429 1428 1428 1430 1433 1434 1435 1438 1440 1440 1440 1439 1440 1442 1445 1446 1448 1453 1455 1463 1472 1478 1484 1494 1502 1509 1515 1520 1524 1529 1531
1453 1453 1457 1445 1443 1443 1446 1421 1434 1435 1433 1430 1428 1426 1424 1421 1421 1422 1420 1420 1423 1424 1426 1430 1432 1434 1437 1436 1436 1437 1438 1440 1440 1440 1441 1444 1448 1457 1467 1473 1482 1492 1499 1506 1513 1518 1522 1528 1529
1458 1457 1456 1452 1443 1443 1446 1431 1432 1432 1430 1427 1424 1422 1419 1416 1413 1414 1411 1410 1413 1417 1421 1426 1428 1429 1431 1432 1432 1433 1435 1436 1435 1434 1431 1438 1441 1450 1461 1470 1481 1490 1497 1503 1511 1516 1521 1525 1528
1457 1458 1452 1451 1444 1441 1446 1434 1431 1429 1426 1421 1420 1417 1414 1411 1408 1408 1405 1402 1406 1410 1416 1422 1424 1425 1427 1428 1429 1430 1432 1434 1433 1430 1430 1437 1443 1454 1462 1471 1480 1487 1495 1501 1508 1514 1520 1523 1528
1447 1451 1450 1448 1446 1447 1439 1432 1427 1426 1422 1418 1416 1413 1409 1407 1404 1403 1401 1398 1404 1407 1412 1416 1417 1419 1422 1423 1425 1427 1428 1431 1432 1432 1435 1440 1446 1454 1461 1470 1478 1485 1492 1498 1506 1512 1517 1521 1527
1450 1452 1446 1442 1439 1446 1439 1425 1419 1421 1419 1416 1413 1408 1405 1402 1400 1398 1396 1395 1396 1403 1406 1410 1412 1415 1418 1420 1422 1424 1427 1430 1433 1435 1437 1443 1449 1454 1460 1467 1475 1483 1489 1496 1501 1508 1512 1519 1523
1446 1448 1448 1446 1439 1437 1437 1420 1415 1413 1411 1409 1405 1404 1401 1398 1395 1394 1391 1390 1392 1395 1399 1404 1406 1410 1415 1418 1420 1422 1426 1430 1434 1437 1439 1443 1448 1454 1459 1466 1474 1480 1487 1492 1498 1504 1508 1513 1520
1442 1437 1438 1441 1446 1446 1432 1431 1404 1410 1406 1403 1400 1399 1395 1393 1390 1389 1385 1385 1386 1391 1397 1400 1402 1406 1410 1414 1417 1419 1421 1426 1430 1435 1440 1444 1448 1452 1458 1464 1472 1477 1483 1489 1494 1501 1505 1510 1515
1428 1431 1434 1435 1438 1438 1433 1448 1400 1405 1404 1399 1396 1393 1393 1392 1387 1381 1379 1380 1383 1389 1392 1395 1399 1402 1406 1410 1415 1418 1421 1424 1429 1434 1439 1444 1448 1451 1457 1462 1467 1473 1480 1485 1490 1497 1502 1507 1512
1422 1427 1429 1432 1439 1445 1424 1438 1402 1413 1404 1395 1393 1391 1390 1387 1382 1376 1375 1377 1380 1385 1391 1391 1394 1398 1402 1407 1411 1415 1418 1422 1427 1430 1435 1440 1444 1448 1453 1458 1462 1469 1475 1480 1487 1494 1498 1503 1509
1423 1432 1448 1448 1449 1433 1422 1430 1411 1404 1399 1396 1394 1390 1387 1381 1373 1369 1368 1368 1371 1378 1385 1388 1390 1393 1397 1403 1407 1411 1414 1418 1423 1427 1430 1433 1437 1439 1443 1451 1457 1463 1469 1475 1484 1490 1496 1500 1505
1422 1427 1443 1440 1441 1430 1418 1425 1410 1396 1396 1395 1392 1392 1386 1378 1372 1370 1363 1360 1363 1370 1378 1385 1385 1389 1393 1399 1403 1408 1412 1415 1418 1422 1425 1428 1431 1433 1431 1441 1449 1457 1463 1471 1478 1485 1491 1495 1499
1417 1425 1417 1428 1426 1433 1423 1411 1398 1395 1397 1395 1392 1389 1385 1382 1382 1372 1364 1363 1361 1363 1372 1379 1382 1386 1391 1396 1400 1405 1408 1412 1415 1418 1421 1422 1422 1422 1429 1434 1442 1450 1457 1465 1471 1478 1485 1491 1495
1418 1420 1425 1431 1431 1427 1420 1415 1412 1401 1401 1397 1394 1389 1383 1377 1374 1372 1367 1364 1365 1366 1370 1376 1380 1383 1388 1393 1397 1401 1405 1410 1412 1415 1417 1418 1418 1420 1426 1428 1438 1445 1452 1459 1466 1474 1482 1487 1490
1424 1429 1433 1431 1433 1429 1424 1418 1402 1405 1403 1404 1397 1392 1389 1381 1378 1372 1371 1365 1365 1366 1371 1372 1378 1382 1386 1390 1394 1398 1401 1407 1410 1413 1414 1417 1418 1420 1423 1427 1434 1436 1446 1454 1462 1469 1478 1484 1489
1423 1433 1435 1435 1438 1438 1439 1426 1403 1404 1403 1398 1395 1393 1386 1387 1381 1375 1370 1365 1362 1366 1374 1375 1377 1380 1384 1388 1392 1396 1400 1403 1408 1411 1414 1416 1419 1423 1426 1429 1431 1437 1443 1449 1460 1465 1474 1479 1485